Location: Cruquius
(52.3348°N, 4.6319°E)
Time: 09:11:23
(UTC+00:00)

Cosmos 2298 Rocket - Pass Details

Date: 12 May 2021
Orbit: 776 x 784 km, 74.0° (Epoch: 15 June)

Event Time Altitude Azimuth Distance (km) Brightness Sun altitude
Exits shadow 23:42:48 36° 203° (SSW) 1,226 4.6 -19.3°
Maximum altitude 23:45:05 89° 114° (ESE) 784 4.0 -19.3°
Drops below altitude 10° 23:50:24 10° 26° (NNE) 2,338 7.5 -19.2°
Sets 23:52:48 0° 26° (NNE) 3,270 8.5 -19.2°
